Flag for U.S.A. Weather past 2 weeks in Lexington-Fayette, Kentucky, U.S.A.

Now
48 °F

Clear.


Feels Like: 44 °F
Forecast: 47 / 70 °F
Wind: 9 mph from Northeast

Location: Blue Grass Airport


UV Index: 5 (Moderate)

Visibility: 10 mi


Pressure: 30.21 "Hg

Humidity: 68%

Dew point: 38 °F

Location of Lexington-FayetteLocation

Historic Weather in Lexington-Fayette

°F

Lexington-Fayette temperature yesterday

Maximum temperature yesterday: 70 °F (at 4:54 PM)
Minimum temperature yesterday: 45 °F (at 1:54 AM)
Average temperature yesterday: 58 °F

Past Weeks' High & Low Weather Summary

 TemperatureHumidityPressure
High83 °F (Apr 13, 3:54 PM)93% (Apr 4, 6:54 AM)30.40 "Hg (Apr 4, 6:54 AM)
Low29 °F (Apr 16, 12:54 AM)24% (Apr 13, 4:54 PM)29.36 "Hg (Apr 7, 5:54 PM)
Average55 °F58%30.01 "Hg
* Reported Apr 4 5:54 AM — Apr 19 5:54 AM, Lexington-Fayette, Weather by CustomWeather, © 2014

Note: Actual official high and low records may vary slightly from our data, if they occured in-between our weather recording intervals... More about our weather records

Advertising

Historic Weather Conditions — Data for Previous 24 hours

 ConditionsComfort  
Time TempWeatherWind HumidityBarometerVisibility
5:54 AM
Apr 19
48 °FClear.9 mph68%30.21 "Hg10 mi
4:54 AM49 °FClear.8 mph66%30.20 "Hg10 mi
3:54 AM49 °FClear.9 mph66%30.20 "Hg10 mi
2:54 AM51 °FClear.7 mph59%30.18 "Hg10 mi
1:54 AM52 °FClear.6 mph59%30.20 "Hg10 mi
12:54 AM52 °FClear.5 mph66%30.20 "Hg10 mi
11:54 PM
Apr 18
53 °FClear.7 mph61%30.21 "Hg10 mi
10:54 PM57 °FClear.No wind55%30.22 "Hg9 mi
9:54 PM60 °FClear.5 mph44%30.21 "Hg10 mi
8:54 PM62 °FSunny.6 mph43%30.20 "Hg10 mi
7:54 PM66 °FPartly sunny.No wind37%30.20 "Hg10 mi
6:54 PM67 °FSunny.3 mph36%30.20 "Hg10 mi
5:54 PM68 °FSunny.5 mph36%30.21 "Hg10 mi
4:54 PM70 °FSunny.7 mph34%30.23 "Hg8 mi
3:54 PM69 °FScattered clouds.7 mph36%30.25 "Hg10 mi
2:54 PM68 °FPartly sunny.No wind36%30.27 "Hg10 mi
1:54 PM68 °FSunny.6 mph35%30.29 "Hg10 mi
12:54 PM67 °FSunny.7 mph39%30.30 "Hg10 mi
11:54 AM64 °FSunny.7 mph49%30.32 "Hg10 mi
10:54 AM61 °FPassing clouds.8 mph52%30.32 "Hg10 mi
9:54 AM57 °FScattered clouds.7 mph58%30.31 "Hg10 mi
8:54 AM54 °FScattered clouds.7 mph59%30.31 "Hg10 mi
7:54 AM52 °FClear.6 mph57%30.29 "Hg10 mi
Weather by CustomWeather, © 2014

See weather overview